Find Starlink 33556

NORAD ID: 62109 Int'l Des: 2024-220 Owner: SPXS Country: US Constellation: starlink operational
LEOCIRCULAR

实时位置

正在加载3D地球...

关于 Starlink 33556

正在加载描述...

即将过境

Passes for default location (London). Set your location on the main map for personalized predictions.

高度历史

Loading altitude history...

两行轨道根数

1 62109U 24220X 26127.27668682 .00031187 00000-0 11371-2 0 9996
2 62109 43.0074 234.4810 0002119 269.2288 90.8320 15.27607986 82171
Epoch: May 7, 2026 • Age: 10 hours

当前状态

高度 487.1 km
速度 7.63 km/s
星下点 41.71°N, 132.81°W
发射日期 Nov 25, 2024
运行时间 1.4 years
类型 internet

技术详情

分类 Payload
质量 530.00 kg
干质量 500.00 kg
总质量 530.00 kg
长度 0.30 m
直径 4.10 m
跨度 29.00 m
形状 Box + pan
制造商 SPXS
平台类型 Starlink V2MO
阶段状态 In Orbit
所有者/国家 SPXS/US

Most Searched